Location: Barrio de Canyet
(41.4665°N, 2.2381°E)
Time: 02:24:29
(UTC+00:00)

Cosmos 1023 Rocket - Pass Details

Date: 09 April 2020
Orbit: 737 x 772 km, 74.1° (Epoch: 31 May)

Event Time Altitude Azimuth Distance (km) Brightness Sun altitude
Rises 19:19:39 0° 190° (S) 3,200 7.6 -10.6°
Reaches altitude 10° 19:22:02 10° 188° (S) 2,273 6.8 -11.0°
Maximum altitude 19:27:08 67° 106° (ESE) 814 4.4 -11.9°
Drops below altitude 10° 19:32:13 10° 25° (NNE) 2,267 6.9 -12.8°
Sets 19:34:35 0° 23° (NNE) 3,190 7.7 -13.2°
